Wetbulb
73.57 73.62 73.84 73.93 73.83 73.83 73.78 73.70 73.50 73.13 72.64 73.02 72.91 72.65 73.60 72.78 71.37 71.43 72.54 72.78 73.14 73.18 72.92 73.10 73.34 73.50 73.37 73.93 73.96 73.54 73.48 73.52 74.14
73.27 73.64 73.50 73.44 73.38 73.41 73.39 73.25 73.19 73.35 72.93 73.17 72.54 72.37 73.52 71.62 71.27 70.54 71.02 71.81 72.36 72.57 72.57 72.36 72.39 72.35 72.49 72.96 73.44 73.00 73.10 73.02 73.56
72.65 73.09 73.22 73.03 72.73 72.96 72.85 72.62 72.87 72.73 72.54 72.45 71.98 72.41 72.40 70.66 70.40 71.61 71.49 72.08 71.85 71.76 71.76 71.39 71.40 71.69 71.79 71.92 71.98 71.98 72.46 72.56 72.63
72.26 72.19 72.72 72.78 72.41 72.30 72.37 72.23 72.52 72.35 72.16 71.77 71.21 71.38 71.76 70.38 69.78 69.54 69.91 70.87 70.84 71.25 70.80 70.65 70.60 70.43 70.65 70.70 71.24 71.35 71.56 71.78 71.98
72.17 72.43 72.52 72.55 72.02 71.97 71.95 72.08 72.05 71.68 71.25 70.53 69.98 70.76 70.78 69.54 68.81 68.43 67.79 69.56 68.92 69.36 68.91 68.68 68.72 68.87 68.95 69.16 69.80 70.15 70.46 70.73 70.98
71.00 72.02 72.41 72.15 71.55 71.64 71.41 71.10 70.83 70.26 69.48 68.75 68.45 70.57 68.95 68.04 67.46 67.18 67.89 68.46 68.50 68.20 67.77 67.48 67.47 67.55 67.63 67.76 67.80 67.80 68.37 68.84 69.08
70.10 71.62 72.15 71.65 71.21 71.01 70.82 70.30 69.50 70.66 69.27 68.16 68.20 68.52 67.72 66.90 66.96 66.99 68.41 67.97 67.77 67.56 67.08 66.90 66.70 66.70 66.76 66.49 66.54 66.53 66.64 66.84 67.13
69.03 71.03 71.10 71.08 70.84 69.68 69.62 68.63 67.81 67.43 67.89 68.15 68.04 67.14 66.25 66.32 66.34 67.02 68.07 67.18 66.99 66.88 66.38 66.04 65.85 65.94 65.93 65.79 65.77 65.74 65.56 65.59 65.45
67.01 68.85 69.01 69.17 69.92 68.29 67.69 66.45 66.18 66.12 66.26 66.43 66.27 65.65 65.66 65.69 65.75 66.30 67.32 66.64 66.42 66.48 66.05 65.58 65.28 65.06 64.98 65.03 65.13 65.00 64.99 64.89 64.79
66.61 67.92 69.05 68.10 68.39 67.49 65.37 65.07 65.00 65.06 65.51 65.37 64.62 64.63 65.30 65.37 65.35 65.61 66.70 66.96 65.98 65.76 65.63 65.34 65.00 64.72 64.55 64.47 64.38 64.22 64.02 63.90 63.80
66.81 66.60 67.78 67.94 67.23 65.10 63.97 62.88 63.26 63.59 63.87 63.51 64.03 64.41 64.71 64.80 64.84 64.84 65.56 66.39 66.12 65.30 65.16 65.01 64.73 64.61 64.30 64.01 63.78 63.56 63.52 63.38 63.14
66.30 65.99 66.23 66.56 66.85 64.70 63.90 62.80 63.28 63.23 63.37 63.23 63.60 63.80 63.93 64.07 64.11 64.07 64.31 64.60 65.38 65.32 64.32 64.24 64.09 63.94 63.78 63.43 63.03 62.82 62.76 62.60 62.44
65.38 64.93 65.17 66.57 65.70 64.39 63.23 62.27 62.19 62.42 62.46 62.27 62.43 62.76 63.03 63.06 63.21 63.48 63.52 63.06 62.99 64.43 64.92 63.58 63.44 63.14 62.91 62.73 62.39 62.07 61.96 61.78 61.69
65.22 63.74 65.37 64.74 64.46 63.66 62.82 62.09 61.41 60.45 61.32 61.33 61.76 61.98 61.84 61.72 61.47 61.76 62.44 62.95 63.07 62.65 63.54 63.99 63.44 62.45 62.41 62.18 61.82 61.40 61.25 61.02 60.83
64.10 62.96 63.85 63.52 63.48 62.60 62.72 61.47 61.63 61.05 60.78 59.92 59.94 60.79 60.97 60.99 60.38 60.43 60.68 61.62 61.56 61.65 61.72 62.21 61.78 61.47 61.04 61.17 61.28 60.87 60.41 60.12 60.12
63.18 62.72 62.98 63.31 62.69 62.59 62.78 61.52 60.31 59.88 60.60 58.96 58.32 58.70 59.49 59.31 59.45 59.79 59.29 59.80 60.02 60.38 60.85 61.03 60.94 60.04 59.20 59.00 59.48 60.10 59.66 59.34 58.99
61.11 61.40 61.73 61.72 62.16 62.24 61.80 60.86 59.68 59.99 59.90 57.02 56.36 53.39 55.34 57.43 57.73 58.34 58.05 57.86 58.59 58.95 59.54 59.92 60.07 59.98 58.77 57.50 56.79 57.52 57.58 57.76 57.89
60.76 59.85 58.34 59.29 61.54 61.51 61.38 61.61 60.56 58.03 59.33 59.28 57.20 53.16 51.86 54.46 56.87 56.59 57.13 56.97 56.42 57.27 58.03 57.45 58.45 59.32 58.80 56.63 55.51 55.12 55.10 55.53 55.83
59.39 59.83 60.50 58.73 61.42 61.72 61.84 62.07 60.92 60.04 57.23 58.32 57.05 57.69 57.07 52.70 51.72 55.69 56.16 56.34 56.10 55.61 55.38 56.38 56.86 57.83 58.25 55.19 53.30 53.71 52.68 52.77 53.24
55.66 56.56 57.64 58.72 60.52 61.58 61.92 61.86 61.72 61.06 59.19 57.71 56.17 55.72 55.82 56.32 53.95 51.48 53.00 54.62 54.94 52.16 54.51 56.88 55.91 57.11 57.41 57.28 55.86 53.32 53.77 51.84 51.36
MSLP
1016.50 1016.71 1016.89 1016.95 1017.05 1017.03 1017.06 1017.17 1017.17 1017.28 1017.42 1017.54 1017.62 1017.51 1017.27 1016.90 1016.92 1016.91 1017.21 1017.31 1017.45 1017.25 1017.20 1017.04 1016.81 1016.65 1016.53 1016.27 1015.95 1015.69 1015.39 1015.11 1014.83
1016.72 1016.85 1017.16 1017.33 1017.46 1017.47 1017.42 1017.56 1017.67 1017.65 1017.88 1017.91 1018.08 1017.85 1017.55 1017.54 1017.53 1017.60 1017.72 1018.07 1018.05 1017.85 1017.73 1017.62 1017.55 1017.46 1017.23 1016.96 1016.73 1016.53 1016.22 1015.87 1015.66
1016.93 1017.03 1017.22 1017.59 1017.85 1017.82 1017.86 1018.01 1018.04 1018.13 1018.30 1018.35 1018.43 1018.32 1017.98 1017.83 1017.98 1018.35 1018.72 1018.86 1018.71 1018.59 1018.50 1018.35 1018.25 1018.16 1018.01 1017.74 1017.53 1017.39 1017.14 1016.88 1016.58
1017.17 1017.25 1017.34 1017.73 1018.07 1018.21 1018.24 1018.43 1018.43 1018.57 1018.73 1018.85 1018.99 1018.81 1018.49 1018.00 1018.07 1018.75 1019.24 1019.61 1019.41 1019.36 1019.27 1019.14 1019.03 1019.01 1018.83 1018.63 1018.37 1018.20 1018.00 1017.81 1017.59
1017.41 1017.55 1017.57 1017.81 1018.18 1018.50 1018.63 1018.78 1018.91 1019.08 1019.23 1019.39 1019.47 1019.38 1019.01 1018.80 1018.93 1019.51 1020.21 1020.18 1020.04 1020.11 1020.04 1019.92 1019.86 1019.85 1019.67 1019.56 1019.38 1019.16 1018.93 1018.76 1018.53
1017.53 1017.38 1017.96 1018.09 1018.27 1018.58 1018.98 1019.33 1019.37 1019.50 1019.81 1019.86 1019.68 1019.29 1019.17 1019.30 1019.62 1020.39 1020.85 1020.77 1020.71 1020.73 1020.76 1020.69 1020.58 1020.58 1020.53 1020.40 1020.29 1020.12 1019.86 1019.76 1019.62
1016.88 1017.65 1018.12 1018.52 1018.61 1018.81 1019.16 1019.70 1019.87 1019.33 1019.54 1020.05 1019.87 1019.43 1019.59 1019.81 1020.30 1021.22 1021.41 1021.39 1021.45 1021.46 1021.47 1021.37 1021.34 1021.26 1021.22 1021.17 1021.07 1020.95 1020.84 1020.65 1020.56
1017.13 1017.64 1018.22 1018.48 1018.86 1019.01 1019.42 1019.88 1019.38 1019.37 1019.46 1019.75 1019.71 1019.82 1019.85 1020.19 1020.93 1021.94 1022.09 1022.08 1022.08 1022.16 1022.17 1022.11 1022.07 1022.02 1021.96 1021.88 1021.84 1021.70 1021.63 1021.53 1021.57
1016.97 1017.08 1017.52 1017.88 1018.11 1018.84 1019.23 1019.50 1019.81 1019.83 1019.81 1019.84 1020.07 1020.18 1020.28 1020.73 1021.53 1022.50 1022.64 1022.63 1022.68 1022.75 1022.78 1022.79 1022.73 1022.71 1022.68 1022.62 1022.65 1022.56 1022.33 1022.27 1022.20
1017.39 1017.21 1017.60 1017.98 1018.29 1019.01 1019.45 1019.78 1019.97 1020.01 1020.00 1020.16 1020.30 1020.58 1020.71 1021.12 1021.72 1022.67 1023.11 1023.12 1023.19 1023.28 1023.32 1023.33 1023.32 1023.35 1023.34 1023.37 1023.31 1023.35 1023.26 1023.20 1023.02
1017.66 1017.76 1017.99 1018.24 1018.86 1019.49 1019.88 1020.15 1020.33 1020.54 1020.56 1020.77 1020.90 1021.15 1021.42 1021.65 1022.13 1022.70 1023.43 1023.61 1023.67 1023.77 1023.81 1023.93 1023.95 1023.97 1024.01 1024.09 1024.03 1024.03 1024.00 1023.96 1023.88
1017.37 1017.71 1018.20 1018.32 1018.73 1019.33 1019.80 1020.20 1020.51 1020.69 1021.04 1021.32 1021.61 1021.83 1021.97 1022.17 1022.42 1022.87 1023.33 1023.94 1024.21 1024.29 1024.34 1024.45 1024.54 1024.61 1024.61 1024.57 1024.64 1024.62 1024.67 1024.60 1024.61
1016.98 1017.48 1018.03 1018.31 1018.77 1019.42 1019.94 1020.44 1020.83 1021.07 1021.40 1021.67 1022.15 1022.41 1022.53 1022.73 1023.06 1023.36 1023.39 1023.66 1024.01 1024.60 1024.75 1024.82 1024.91 1025.07 1025.19 1025.25 1025.24 1025.26 1025.15 1025.23 1025.22
1016.89 1017.82 1018.02 1018.47 1018.96 1019.46 1020.02 1020.53 1020.99 1021.32 1021.67 1022.13 1022.46 1022.68 1022.88 1023.19 1023.45 1023.74 1024.02 1024.28 1024.17 1024.60 1025.25 1025.26 1025.22 1025.27 1025.37 1025.56 1025.69 1025.75 1025.67 1025.74 1025.61
1017.39 1018.06 1018.17 1018.69 1018.97 1019.73 1020.03 1020.68 1021.17 1021.53 1021.96 1022.40 1022.83 1023.26 1023.42 1023.52 1023.50 1023.85 1024.07 1024.55 1024.77 1024.77 1024.89 1025.07 1025.57 1025.74 1025.69 1025.86 1025.85 1025.94 1026.13 1026.11 1026.09
1017.32 1018.00 1017.91 1018.57 1018.99 1019.56 1020.10 1020.73 1021.16 1021.78 1022.15 1022.67 1023.17 1023.58 1023.55 1023.68 1023.96 1024.12 1024.17 1024.70 1024.85 1024.92 1025.04 1025.05 1025.16 1025.82 1026.16 1026.10 1026.20 1025.99 1026.14 1026.29 1026.35
1017.32 1017.56 1018.00 1018.58 1019.02 1019.73 1020.16 1020.76 1021.18 1021.75 1022.18 1022.04 1022.50 1023.12 1023.82 1023.68 1023.94 1024.12 1024.29 1024.49 1025.02 1025.04 1025.29 1025.24 1025.56 1025.81 1025.85 1026.59 1026.62 1026.61 1026.48 1026.62 1026.66
1017.06 1017.57 1018.43 1018.76 1019.10 1019.52 1020.03 1020.53 1020.86 1021.48 1021.96 1021.80 1021.60 1022.14 1022.02 1022.89 1023.72 1023.96 1024.28 1024.55 1024.89 1025.17 1025.39 1025.81 1025.71 1025.88 1026.03 1026.59 1026.72 1026.93 1026.99 1027.07 1026.91
1017.44 1017.49 1017.99 1018.82 1018.85 1019.20 1019.75 1020.26 1020.79 1021.22 1021.64 1021.96 1022.21 1021.97 1021.75 1022.07 1023.06 1023.77 1024.32 1024.97 1024.98 1025.38 1025.71 1025.69 1025.52 1025.82 1025.95 1026.62 1026.99 1027.14 1027.07 1027.11 1027.25
1018.12 1017.89 1018.38 1018.76 1018.63 1018.91 1019.60 1019.99 1020.42 1020.94 1021.14 1021.62 1021.94 1022.08 1022.19 1022.04 1022.29 1022.66 1023.83 1024.96 1025.76 1026.32 1025.99 1025.98 1026.11 1025.96 1026.12 1026.28 1026.54 1026.91 1026.98 1026.97 1027.15
Wind_Speed
12 11 13 14 13 14 15 15 16 18 18 18 17 14 11 13 14 13 16 16 21 23 23 22 23 24 24 24 25 27 27 27 27
13 13 14 14 14 14 15 16 15 17 16 19 16 13 12 13 13 13 15 16 20 23 23 24 25 25 25 25 25 27 28 27 26
13 14 15 14 14 15 15 15 17 18 18 19 16 10 12 14 15 16 13 18 21 22 22 23 24 25 25 26 26 27 28 28 27
13 12 14 15 14 14 15 14 17 18 18 19 15 13 9 12 11 13 10 18 22 23 23 23 24 24 24 25 26 26 27 28 29
10 10 13 16 15 15 15 15 17 18 18 18 16 10 8 12 13 12 10 17 20 21 21 22 22 23 24 25 25 25 26 27 27
12 10 11 16 16 17 16 14 16 17 15 13 7 2 7 10 10 9 15 18 20 21 21 21 22 23 23 24 25 25 25 25 26
9 11 12 16 17 18 17 14 12 11 8 7 4 6 8 9 11 9 16 18 19 20 20 21 21 22 23 23 24 24 25 25 25
8 8 9 11 14 9 10 10 5 7 6 5 5 7 8 8 9 12 15 18 19 19 20 21 21 21 22 23 23 24 24 25 25
8 8 9 10 8 9 7 5 6 8 8 9 9 9 8 8 8 11 15 17 18 19 20 20 21 21 21 22 22 23 24 24 25
6 7 8 8 7 7 6 7 7 7 8 8 10 10 10 12 8 8 13 15 17 18 19 19 20 20 21 21 22 22 23 24 24
8 9 8 8 8 7 7 7 7 7 8 9 10 10 10 11 12 10 10 13 15 17 18 18 19 19 20 20 21 21 22 22 23
13 11 10 9 9 11 9 9 8 9 9 10 10 9 10 9 11 10 9 10 13 14 16 16 17 17 18 19 19 20 20 21 21
12 9 8 10 9 9 9 9 9 8 8 8 8 7 8 10 10 8 7 8 9 9 12 15 15 16 16 17 18 18 19 19 20
10 7 10 11 10 9 9 8 9 9 8 8 7 7 7 7 7 9 8 6 6 7 10 11 12 13 14 15 15 16 17 17 17
10 8 12 12 10 10 10 11 9 9 9 8 8 6 5 5 6 7 6 7 6 5 6 6 8 11 11 11 13 14 14 14 15
9 9 13 12 11 12 12 11 12 9 10 9 7 5 6 7 5 5 5 6 5 6 5 3 3 7 9 9 9 10 11 12 13
11 13 12 11 11 12 13 12 9 9 10 10 8 6 5 5 5 5 4 6 3 3 2 2 2 2 3 6 8 8 8 9 10
11 14 11 9 10 10 13 13 14 11 10 11 3 4 5 8 6 7 6 6 4 3 1 2 3 1 1 3 4 6 6 6 7
7 14 14 12 9 12 12 12 11 11 11 9 4 1 3 6 5 5 6 5 5 3 2 4 3 3 3 2 4 3 3 3 4
6 5 8 10 9 11 13 14 14 11 10 8 7 5 3 3 3 5 7 4 2 3 2 2 4 5 4 4 4 3 4 3 1
Wind_Direction
132 127 115 107 105 103 102 101 105 102 103 97 91 89 82 81 79 81 71 68 71 68 67 65 63 62 60 59 57 56 58 54 53
131 122 120 114 111 106 105 107 105 100 102 99 90 80 69 79 78 73 75 70 67 66 64 63 62 61 60 60 60 58 57 57 55
139 129 124 122 115 110 106 108 104 104 103 97 92 81 85 86 80 76 70 67 70 67 65 64 63 59 59 61 61 60 59 59 58
142 140 131 132 124 114 110 109 106 107 101 94 87 66 47 86 80 77 72 68 69 66 65 65 65 62 59 58 59 59 59 58 59
154 145 137 131 129 117 113 110 110 103 100 98 99 98 94 85 83 72 66 69 71 70 67 66 65 63 63 62 60 58 57 58 55
161 141 146 137 137 123 117 116 107 104 98 101 104 182 82 82 81 86 89 86 83 80 78 76 73 70 68 67 67 64 59 56 57
180 141 145 143 133 124 119 119 131 157 129 118 188 88 94 89 94 87 88 87 84 82 79 76 74 72 70 68 67 67 64 63 58
164 147 152 146 148 132 133 148 161 138 139 128 115 105 103 98 87 88 89 90 89 86 82 79 76 73 71 69 67 66 65 64 62
171 168 159 159 171 148 148 140 141 140 149 136 126 120 112 108 107 95 93 94 91 88 85 83 79 77 73 71 68 66 64 62 62
185 172 159 166 149 153 137 145 143 139 130 126 119 119 114 110 106 101 93 94 94 91 87 84 82 79 75 72 71 67 64 62 59
180 178 159 160 150 139 139 135 134 125 128 120 114 111 107 109 115 114 99 89 92 91 88 84 82 80 78 73 71 69 67 65 62
176 181 159 169 156 148 141 138 139 130 124 123 120 116 113 112 113 118 115 103 79 86 87 86 82 79 78 78 74 71 68 66 63
169 180 165 168 150 147 142 143 141 136 131 129 117 119 118 116 114 115 115 116 115 92 84 87 84 80 76 73 72 72 70 67 64
159 166 164 155 154 154 147 143 147 140 139 131 130 128 124 121 126 124 112 98 104 110 80 78 79 82 79 76 72 71 71 69 68
162 169 171 159 158 154 151 153 154 147 141 135 131 126 124 130 137 129 125 117 122 109 114 143 87 74 74 72 74 72 68 67 64
166 172 165 164 165 162 162 151 148 151 145 141 130 133 146 145 150 162 151 137 138 143 135 126 122 112 82 63 61 71 70 66 62
170 170 166 168 164 168 158 159 152 150 169 156 147 159 169 188 175 178 173 160 159 161 156 138 82 85 77 72 59 49 62 62 58
177 169 161 162 163 166 168 169 165 163 184 174 162 166 203 167 185 192 191 190 180 181 130 236 212 207 104 184 120 56 46 44 51
177 176 171 171 175 172 176 177 179 170 177 193 207 249 105 198 166 200 196 214 215 199 201 241 257 241 227 99 44 58 70 45 27
137 127 164 182 184 183 184 183 191 190 182 187 181 178 174 176 214 178 184 189 212 330 331 280 301 320 305 255 140 195 212 211 250